TimeEST,TemperatureF,Dew PointF,Humidity,Sea Level PressureIn,VisibilityMPH,Wind Direction,Wind SpeedMPH,Gust SpeedMPH,PrecipitationIn,Events,Conditions,WindDirDegrees,DateUTC
12:15 AM,37.8,34.7,89,29.75,10.0,South,11.5,-,N/A,,Overcast,190,2012-12-19 05:15:00
12:35 AM,37.6,34.3,88,29.76,10.0,SSW,12.7,18.4,N/A,,Scattered Clouds,210,2012-12-19 05:35:00
12:55 AM,37.2,34.2,89,29.76,10.0,SSW,10.4,-,N/A,,Clear,210,2012-12-19 05:55:00
1:15 AM,36.5,33.8,90,29.76,10.0,SSW,10.4,-,N/A,,Clear,210,2012-12-19 06:15:00
1:35 AM,35.8,33.4,91,29.76,10.0,SW,6.9,-,N/A,,Clear,230,2012-12-19 06:35:00
1:55 AM,36.7,33.8,89,29.76,10.0,WSW,8.1,-,N/A,,Clear,240,2012-12-19 06:55:00
2:15 AM,39.2,34.7,84,29.78,10.0,WSW,11.5,-,N/A,,Clear,240,2012-12-19 07:15:00
2:35 AM,40.1,35.1,82,29.79,10.0,WSW,13.8,-,N/A,,Clear,240,2012-12-19 07:35:00
2:55 AM,39.7,34.9,83,29.80,10.0,WSW,13.8,-,N/A,,Clear,240,2012-12-19 07:55:00
3:15 AM,39.6,35.1,84,29.81,10.0,WSW,11.5,-,N/A,,Clear,240,2012-12-19 08:15:00
3:35 AM,39.2,34.7,84,29.81,10.0,WSW,8.1,-,N/A,,Clear,250,2012-12-19 08:35:00
3:55 AM,38.3,34.7,87,29.83,10.0,WSW,9.2,-,N/A,,Clear,250,2012-12-19 08:55:00
4:15 AM,39.6,35.6,86,29.83,10.0,WSW,9.2,-,N/A,,Mostly Cloudy,250,2012-12-19 09:15:00
4:35 AM,40.8,35.8,82,29.84,10.0,WSW,10.4,-,N/A,,Overcast,250,2012-12-19 09:35:00
4:55 AM,41.2,36.5,83,29.85,10.0,West,9.2,16.1,N/A,,Overcast,270,2012-12-19 09:55:00
5:15 AM,41.2,36.5,83,29.86,10.0,West,9.2,-,N/A,,Overcast,260,2012-12-19 10:15:00
5:35 AM,41.2,36.9,85,29.88,10.0,West,8.1,16.1,N/A,,Overcast,260,2012-12-19 10:35:00
5:55 AM,41.2,37.2,86,29.88,7.0,West,9.2,-,N/A,,Overcast,260,2012-12-19 10:55:00
6:15 AM,41.0,37.4,87,29.90,7.0,West,8.1,-,N/A,,Overcast,270,2012-12-19 11:15:00
6:35 AM,41.0,37.4,87,29.92,5.0,West,8.1,-,N/A,,Overcast,260,2012-12-19 11:35:00
6:55 AM,41.0,37.4,87,29.94,5.0,WSW,9.2,-,N/A,,Overcast,250,2012-12-19 11:55:00
7:15 AM,40.6,37.4,88,29.95,5.0,WSW,8.1,-,N/A,,Overcast,250,2012-12-19 12:15:00
7:50 AM,41.0,37.4,87,29.97,5.0,West,8.1,-,N/A,,Overcast,260,2012-12-19 12:50:00
8:50 AM,39.2,37.4,93,29.99,5.0,WSW,5.8,-,N/A,,Overcast,250,2012-12-19 13:50:00
9:50 AM,39.2,35.6,87,30.01,5.0,West,5.8,-,N/A,,Overcast,260,2012-12-19 14:50:00
10:50 AM,42.8,35.6,76,30.04,5.0,West,4.6,-,N/A,,Haze,270,2012-12-19 15:50:00
11:50 AM,42.8,35.6,76,30.04,7.0,WNW,6.9,-,N/A,,Overcast,300,2012-12-19 16:50:00
12:50 PM,42.8,35.6,76,30.05,7.0,WNW,5.8,-,N/A,,Overcast,300,2012-12-19 17:50:00
1:50 PM,44.6,35.6,71,30.04,7.0,Calm,Calm,-,N/A,,Scattered Clouds,0,2012-12-19 18:50:00
2:50 PM,44.6,35.6,71,30.06,10.0,Calm,Calm,-,N/A,,Mostly Cloudy,0,2012-12-19 19:50:00
3:58 PM,44.6,37.4,76,30.07,7.0,Calm,Calm,-,N/A,,Overcast,0,2012-12-19 20:58:00
4:50 PM,44.6,37.4,76,30.08,7.0,Calm,Calm,-,N/A,,Overcast,0,2012-12-19 21:50:00
5:55 PM,42.8,37.4,81,30.09,7.0,Calm,Calm,-,N/A,,Overcast,0,2012-12-19 22:55:00
6:50 PM,41.0,35.6,81,30.10,7.0,Calm,Calm,-,N/A,,Mostly Cloudy,0,2012-12-19 23:50:00
8:15 PM,40.5,36.7,86,30.09,7.0,East,5.8,-,N/A,,Scattered Clouds,100,2012-12-20 01:15:00
8:35 PM,41.0,36.1,83,30.10,7.0,SE,5.8,-,N/A,,Scattered Clouds,130,2012-12-20 01:35:00
8:55 PM,40.8,35.8,82,30.09,7.0,SE,4.6,-,N/A,,Clear,130,2012-12-20 01:55:00
9:15 PM,40.6,35.6,82,30.09,7.0,SE,4.6,-,N/A,,Clear,130,2012-12-20 02:15:00
9:35 PM,40.5,35.6,83,30.08,7.0,ESE,5.8,-,N/A,,Clear,110,2012-12-20 02:35:00
9:55 PM,40.5,35.4,82,30.08,7.0,ESE,5.8,-,N/A,,Clear,120,2012-12-20 02:55:00
10:15 PM,40.3,35.4,83,30.07,7.0,ESE,5.8,-,N/A,,Scattered Clouds,120,2012-12-20 03:15:00
10:35 PM,40.1,35.2,83,30.06,7.0,ESE,5.8,-,N/A,,Scattered Clouds,120,2012-12-20 03:35:00
10:55 PM,40.1,35.6,84,30.06,7.0,East,5.8,-,N/A,,Mostly Cloudy,100,2012-12-20 03:55:00
11:15 PM,40.1,35.8,85,30.04,7.0,East,6.9,-,N/A,,Overcast,90,2012-12-20 04:15:00
11:35 PM,40.3,35.6,83,30.04,7.0,East,8.1,-,N/A,,Overcast,100,2012-12-20 04:35:00
11:55 PM,40.3,35.6,83,30.03,7.0,East,6.9,-,N/A,,Overcast,100,2012-12-20 04:55:00